Total_Precipitation_Accumulation
3.46 3.45 3.29 3.16 2.93 2.97 3.33 3.59 3.46 3.44 3.30 3.08 2.74 2.51 2.43 2.30 2.24 2.44 2.60 2.67 2.64 2.72 3.02 3.21 3.07 2.84 2.69 2.49 2.29 1.99 1.84 1.82 1.68 1.43 1.30 1.23 1.15 1.15 1.22 1.30 1.28 1.19 1.18
3.83 3.95 3.77 3.59 3.16 3.01 3.08 3.40 3.50 3.73 3.62 3.39 2.74 2.58 2.56 2.52 2.52 2.49 2.64 3.16 3.21 2.84 2.93 3.29 3.53 3.58 3.39 3.10 2.81 2.50 2.27 2.13 1.87 1.58 1.47 1.38 1.26 1.23 1.37 1.46 1.49 1.31 1.21
4.01 3.99 3.76 3.37 3.02 2.96 3.19 3.26 3.29 3.56 3.40 3.27 3.12 3.06 2.98 2.84 2.71 2.65 2.74 3.27 3.26 2.92 2.82 2.93 3.31 3.66 3.80 3.86 3.66 3.46 3.10 2.69 2.32 1.95 1.68 1.48 1.37 1.30 1.32 1.46 1.59 1.51 1.34
3.41 3.50 3.22 2.88 2.92 3.07 3.23 3.43 3.37 3.47 3.47 3.53 3.62 3.52 3.28 3.11 2.68 2.47 2.37 2.54 2.83 2.53 2.75 3.01 3.16 3.33 3.79 4.29 4.50 4.64 4.22 3.48 2.90 2.44 2.02 1.69 1.50 1.33 1.22 1.31 1.51 1.57 1.42
2.69 2.91 2.93 2.91 2.80 2.96 3.04 2.83 3.26 3.55 3.59 3.60 3.32 3.38 2.97 2.84 2.64 2.30 2.25 2.23 2.41 2.55 2.62 2.70 2.95 3.04 3.55 4.36 5.02 5.55 5.46 4.75 3.81 3.10 2.65 2.22 1.91 1.57 1.37 1.35 1.44 1.51 1.42
2.56 2.86 2.86 2.84 2.80 2.97 3.09 3.17 3.47 3.62 3.31 3.27 2.96 2.91 2.66 2.29 2.28 2.23 2.05 2.14 2.27 2.17 2.37 2.56 2.93 2.78 3.31 3.89 4.64 5.55 6.25 5.89 4.79 3.94 3.53 3.18 2.86 2.34 1.83 1.57 1.49 1.51 1.47
2.76 3.01 2.87 3.00 2.81 2.87 2.86 2.93 3.22 3.35 2.98 3.03 3.50 3.15 2.54 2.11 2.13 2.02 2.06 2.14 2.12 2.15 2.39 2.74 3.00 3.13 3.19 3.13 3.44 4.31 5.41 6.01 5.71 4.89 4.42 4.09 3.74 3.16 2.51 2.11 1.85 1.72 1.59
2.72 2.73 2.88 2.73 2.66 2.83 2.84 2.91 3.18 3.12 2.81 2.98 3.47 3.65 3.14 2.74 2.38 1.94 1.97 2.01 2.05 2.28 2.36 2.42 2.90 3.26 3.24 3.55 3.16 3.22 4.11 5.12 5.73 5.65 5.23 4.59 4.10 3.55 3.05 2.76 2.39 2.08 1.83
2.40 2.47 2.43 2.48 2.62 2.38 2.64 2.92 3.04 3.05 2.97 2.87 3.08 3.59 3.44 3.10 2.70 2.27 2.07 2.15 2.31 2.46 2.51 2.66 2.75 3.01 3.25 3.76 3.67 3.40 3.39 3.74 4.77 5.75 5.88 5.21 4.29 3.64 3.42 3.26 3.09 2.63 2.23
2.13 2.15 2.16 2.36 2.48 2.45 2.75 2.46 2.60 2.86 3.06 2.86 2.86 2.86 2.92 3.18 3.21 2.78 2.38 2.21 2.29 2.41 2.51 2.53 2.61 2.90 3.14 3.51 3.83 3.51 3.15 2.97 3.43 4.49 5.38 5.44 4.75 3.80 3.32 3.40 3.82 3.60 2.98
2.01 1.85 1.98 2.21 2.37 2.45 2.57 2.50 2.62 2.62 2.65 2.67 2.74 2.74 2.89 3.14 2.97 2.87 2.72 2.47 2.35 2.19 2.27 2.42 2.62 2.86 2.95 3.18 3.59 3.36 3.19 2.80 2.68 3.04 3.76 4.34 4.51 4.22 3.80 3.75 4.31 4.70 4.49
2.07 1.87 1.91 2.18 2.27 2.37 2.44 2.48 2.48 2.41 2.50 2.57 2.61 2.64 2.84 2.89 2.86 2.93 2.74 2.55 2.41 2.13 2.09 2.19 2.38 2.50 2.62 2.77 2.62 2.64 2.59 2.60 2.49 2.35 2.47 2.85 3.40 3.84 3.95 4.24 4.77 5.27 5.60
2.00 2.00 1.96 2.29 2.43 2.42 2.37 2.49 2.48 2.43 2.55 2.62 2.63 2.64 2.66 2.63 2.70 2.91 2.92 2.63 2.43 2.18 2.26 2.21 2.16 2.32 2.30 2.61 2.55 2.35 2.20 2.29 2.16 1.98 1.93 2.08 2.41 2.91 3.34 3.70 4.11 4.65 5.18
1.87 2.13 2.25 2.27 2.28 2.32 2.30 2.61 2.43 2.43 2.54 2.55 2.41 2.81 2.76 2.59 2.86 3.11 3.28 3.35 2.97 2.68 2.62 2.37 2.16 2.16 2.17 2.28 2.37 2.35 2.14 2.04 1.83 1.74 1.76 1.83 1.92 2.18 2.50 2.84 3.14 3.41 3.67
1.84 2.07 2.22 2.31 2.26 2.27 2.43 2.69 2.62 2.64 2.75 2.62 2.62 2.92 2.83 2.70 2.79 2.95 3.28 3.60 3.62 3.28 3.07 2.79 2.49 2.31 2.23 2.24 2.40 2.19 2.13 2.19 1.89 1.70 1.71 1.74 1.81 1.91 1.95 1.97 2.09 2.20 2.37
2.02 2.12 2.12 2.15 2.13 2.11 2.27 2.67 2.67 2.69 2.89 2.84 2.81 2.87 2.85 2.72 2.83 2.85 3.01 3.39 3.70 3.70 3.29 2.60 2.52 2.41 2.33 2.12 2.27 2.01 2.02 2.18 1.92 1.72 1.62 1.53 1.53 1.56 1.59 1.66 1.77 1.85 1.94
2.10 2.13 2.12 2.13 2.06 1.96 2.08 2.33 2.41 2.63 2.76 2.82 2.79 2.85 2.84 2.98 3.01 2.89 2.99 3.14 3.40 3.60 3.17 2.56 2.66 2.81 2.77 2.54 2.36 2.14 1.99 1.93 1.88 1.87 1.58 1.49 1.49 1.46 1.50 1.58 1.62 1.68 1.77
2.14 2.19 2.20 2.16 1.98 1.97 2.10 2.20 2.32 2.53 2.67 2.75 2.88 3.01 2.77 2.92 3.04 2.96 2.97 2.97 3.13 3.44 3.26 3.03 2.96 3.05 3.00 2.74 2.52 2.26 1.89 1.69 1.72 1.97 1.68 1.45 1.39 1.43 1.47 1.50 1.46 1.46 1.46
2.17 2.27 2.29 2.21 2.15 2.20 2.28 2.34 2.43 2.57 2.64 2.69 2.82 2.82 2.76 2.92 2.79 2.88 2.98 2.92 2.93 2.97 3.11 2.99 2.81 2.90 2.83 2.66 2.51 2.21 1.95 1.92 1.65 1.68 1.65 1.49 1.41 1.40 1.42 1.38 1.33 1.32 1.32
2.12 2.13 2.10 2.19 2.26 2.30 2.34 2.37 2.36 2.38 2.43 2.49 2.47 2.38 2.33 2.37 2.43 2.65 2.65 2.64 2.74 2.84 2.94 2.83 2.73 2.78 2.79 2.81 2.68 2.35 2.21 2.07 1.83 1.54 1.59 1.59 1.54 1.47 1.43 1.36 1.27 1.27 1.33
1.89 2.07 2.10 2.19 2.28 2.24 2.11 2.22 2.26 2.20 2.36 2.27 2.12 2.07 2.07 2.16 2.21 2.30 2.17 2.29 2.52 2.59 2.65 2.72 2.74 2.89 2.88 3.00 2.86 2.55 2.42 2.32 2.04 1.76 1.72 1.62 1.60 1.54 1.57 1.58 1.51 1.39 1.32
1.98 2.05 2.08 2.21 2.28 2.11 2.18 2.23 2.28 2.28 2.30 2.21 2.16 2.09 1.95 1.98 1.99 2.01 1.99 2.03 2.20 2.33 2.51 2.67 2.69 2.78 2.84 2.84 2.85 2.72 2.61 2.41 2.13 1.94 2.10 2.05 1.83 1.77 1.86 1.78 1.67 1.40 1.23
2.11 2.17 2.27 2.33 2.27 2.38 2.36 2.18 2.22 2.17 2.19 2.22 2.24 2.22 1.90 1.71 1.91 1.87 1.99 1.94 1.87 1.94 2.05 2.21 2.29 2.42 2.66 2.80 2.93 2.85 2.86 2.71 2.36 2.08 2.04 1.86 1.73 1.73 1.87 1.98 1.72 1.31 1.21
2.29 2.37 2.40 2.32 2.29 2.39 2.40 2.07 2.01 1.93 1.99 2.07 2.11 2.16 2.17 2.07 2.08 2.13 2.17 2.10 1.95 1.89 1.99 1.97 1.96 2.18 2.56 2.90 2.98 2.93 3.01 2.86 2.49 2.11 2.01 1.87 1.69 1.64 1.48 1.51 1.55 1.27 1.09
2.48 2.55 2.61 2.59 2.47 2.51 2.39 2.02 1.90 1.79 1.89 1.95 2.00 2.00 2.03 1.94 2.01 1.95 1.91 1.87 1.83 1.75 1.74 1.76 1.75 1.87 2.16 2.57 2.79 2.82 2.94 2.89 2.62 2.25 2.04 1.97 1.73 1.67 1.55 1.42 1.39 1.41 1.21
2.63 2.67 2.57 2.45 2.33 2.34 2.32 1.98 1.79 1.68 1.80 1.88 1.97 1.94 1.92 1.83 1.82 1.70 1.60 1.62 1.55 1.57 1.70 1.70 1.64 1.62 1.73 2.05 2.43 2.41 2.49 2.66 2.43 2.16 1.80 1.74 1.66 1.66 1.65 1.44 1.30 1.29 1.26